Weather History for Christmas Island, IS

Change the Weather History Date:

Wednesday, May 23, 2012

  Actual Average Record
Temperature  
Mean Temperature 78 °F -  
Max Temperature 80 °F 78 °F 85 °F (2014)
Min Temperature 75 °F 72 °F 69 °F (2004)
Cooling Degree Days 12    
Growing Degree Days 28 (Base 50)    
Moisture  
Dew Point 70 °F    
Average Humidity 78    
Maximum Humidity 100    
Minimum Humidity 67    
Precipitation  
Precipitation 0.00 in - - ()
Sea Level Pressure  
Sea Level Pressure 29.90 in    
Wind  
Wind Speed 14 mph ()    
Max Wind Speed 20 mph    
Max Gust Speed 32 mph    
Visibility 6.2 miles    
Events      
Averages and records for this station are not official NWS values.
T = Trace of Precipitation, MM = Missing Value Source: Averaged Metar Reports

Daily Weather History Graph

Daily Weather History Graph

Search for Another Location

Airport:

Trip Planner

Search our weather history database for the weather conditions in past years. The results will help you decide how hot, cold, wet, or windy it might be!

Date:

Astronomy

May. 23, 2012 Rise Set
Actual Time 6:06 AM CXT 5:41 PM CXT
Civil Twilight 5:43 AM CXT 6:04 PM CXT
Nautical Twilight 5:17 AM CXT 6:29 PM CXT
Astronomical Twilight 4:52 AM CXT 6:55 PM CXT
Moon 7:46 AM CXT (5/23) 7:36 PM CXT (5/23)
Length of Visible Light 12h 20m
Length of Day
11h 35m
Waxing Crescent, 4% of the Moon is Illuminated
May 23
Waxing Crescent
May 29
First Quarter
Jun 4
Full
Jun 11
Last Quarter
Jun 19
New

Hourly Weather History & Observations

Time (CXT) Temp. Dew Point Humidity Pressure Visibility Wind Dir Wind Speed Gust Speed Precip Events Conditions
12:00 AM 77 °F 69 °F 68% 29.91 in - SE 16.1 mph - -  
12:00 AM 77.0 °F 68.0 °F 74% 29.95 in 6.2 mi SE 16.1 mph - N/A   Mostly Cloudy
1:00 AM 77 °F 69 °F 71% 29.91 in - SE 12.7 mph - -  
1:00 AM 77.0 °F 69.8 °F 78% 29.95 in 6.2 mi SE 12.7 mph - N/A   Overcast
2:00 AM 77.0 °F 69.8 °F 78% 29.95 in 6.2 mi SE 13.8 mph - N/A   Scattered Clouds
3:00 AM 76 °F 70 °F 75% 29.88 in - SE 12.7 mph - -  
3:00 AM 77.0 °F 69.8 °F 78% 29.92 in 6.2 mi SE 12.7 mph - N/A   Mostly Cloudy
4:00 AM 76 °F 70 °F 76% 29.88 in - SE 13.8 mph - -  
4:00 AM 77.0 °F 69.8 °F 78% 29.92 in 6.2 mi SE 13.8 mph - N/A   Mostly Cloudy
5:00 AM 77.0 °F 69.8 °F 78% 29.92 in 6.2 mi SE 13.8 mph - N/A   Overcast
6:00 AM 76 °F 70 °F 76% 29.88 in - SE 12.7 mph - -  
6:00 AM 75.2 °F 69.8 °F 83% 29.92 in 6.2 mi SE 12.7 mph - N/A   Mostly Cloudy
7:00 AM 77 °F 69 °F 70% 29.88 in - SE 13.8 mph - -  
7:00 AM 77.0 °F 69.8 °F 78% 29.92 in 6.2 mi SE 13.8 mph - N/A   Overcast
8:00 AM 77.0 °F 69.8 °F 78% 29.95 in 6.2 mi SE 17.3 mph - N/A   Overcast
9:00 AM 77.0 °F 71.6 °F 83% 29.95 in 6.2 mi SE 15.0 mph - N/A   Overcast
10:00 AM - - %  in - Calm Calm - -  
10:00 AM - - N/A% 0.00 in - North - - N/A   Unknown
11:00 AM - - N/A% 0.00 in - North - - N/A   Unknown
12:00 PM - - %  in - Calm Calm - -  
12:00 PM - - N/A% 0.00 in - North - - N/A   Unknown
1:00 PM 80 °F 80 °F 98% 29.86 in - SE 16.1 mph - -  
1:00 PM 78.8 °F 78.8 °F 100% 29.89 in 6.2 mi SE 16.1 mph - N/A   Scattered Clouds
2:00 PM 78.8 °F 77.0 °F 94% 29.86 in 6.2 mi SE 17.3 mph - N/A   Overcast
2:49 PM 78.8 °F 78.8 °F 100% 29.86 in 6.2 mi SE 17.3 mph 28.8 mph N/A   Overcast
3:00 PM 79 °F - % 29.83 in - SE 15.0 mph - -   Overcast
3:00 PM - - N/A% 29.86 in 6.2 mi SE 15.0 mph - N/A   Overcast
4:00 PM - - %  in - Calm Calm - -  
4:00 PM - - N/A% 0.00 in - North - - N/A   Unknown
5:00 PM 77.0 °F 69.8 °F 78% 29.89 in 6.2 mi SE 17.3 mph - N/A   Overcast
6:00 PM 78 °F 70 °F 69% 29.85 in - SE 17.3 mph - -   Overcast
6:00 PM 77.0 °F 69.8 °F 78% 29.89 in 6.2 mi SE 17.3 mph - N/A   Overcast
6:09 PM 77.0 °F 69.8 °F 78% 29.89 in 6.2 mi SE 17.3 mph 29.9 mph N/A   Overcast
7:00 PM 78 °F 70 °F 70% 29.86 in - ESE 18.4 mph - -  
7:00 PM 77.0 °F 69.8 °F 78% 29.89 in 6.2 mi ESE 18.4 mph - N/A   Overcast
7:13 PM 77.0 °F 69.8 °F 78% 29.92 in 6.2 mi ESE 17.3 mph 28.8 mph N/A   Overcast
8:00 PM 77.0 °F 69.8 °F 78% 29.92 in 6.2 mi ESE 19.6 mph - N/A   Mostly Cloudy
8:10 PM 77.0 °F 68.0 °F 74% 29.92 in 6.2 mi ESE 19.6 mph 32.2 mph N/A   Mostly Cloudy
9:00 PM 78 °F 69 °F 67% 29.89 in - ESE 19.6 mph - -   Overcast
9:00 PM 77.0 °F 69.8 °F 78% 29.92 in 6.2 mi ESE 19.6 mph - N/A   Mostly Cloudy
9:10 PM 77.0 °F 68.0 °F 74% 29.92 in 6.2 mi ESE 19.6 mph 31.1 mph N/A   Mostly Cloudy
10:00 PM 77 °F 68 °F 68% 29.89 in - SE 18.4 mph - -  
10:00 PM 77.0 °F 68.0 °F 74% 29.92 in 6.2 mi SE 18.4 mph - N/A   Scattered Clouds
11:00 PM 77.0 °F 68.0 °F 74% 29.92 in 6.2 mi ESE 19.6 mph - N/A   Mostly Cloudy